Погода в Демянске

Россия / Новгородская область     57°38′34″N   32°27′51″E
темп.,
°C
ветер,
м/с
пор.,
м/с
влажн.,
%
обл.,
%
осадки,
мм/ч
давл.,
гПа
погр.,
м
11 мая, вт
вт1100:00+8ююв2576100 0.0 102691
03:00+7ююв2675100 0.0 1027112
06:00+8ююв2776100 0.0 1027136
09:00+15ююв355299 0.0 1028452
12:00+19ююв344041 0.0 10271144
15:00+21юв34375 0.0 10261416
18:00+20юв35465 0.0 1025665
21:00+13юв386666 0.0 1025135
12 мая, ср
ср1200:00+9юв28755 0.0 1026142
03:00+8юв24800 0.0 102679
06:00+10вюв24830 0.0 102698
09:00+17юв35640 0.0 1026518
12:00+22юв36484 0.0 10241575
15:00+23юв3646100 0.0 10232241
18:00+18всв2566100 0.0 1021107
21:00+15всв3128444 0.3 1019321
13 мая, чт
чт1300:00+15в41281100 0.1 1018676
03:00+14вюв5118758 0.1 1017752
06:00+11юв49870 0.1 1018560
09:00+14юв48575 0.1 1018740
12:00+18юв474412 0.0 10171809
15:00+19юв5744100 0.0 10152263
18:00+15юв3973100 0.4 1014404
21:00+12юв279296 0.7 1013308
14 мая, пт
пт1400:00+9юв28976 0.0 1014256
03:00+8юв279771 0.0 1014157
06:00+8юв28925 0.0 1015199
09:00+15ююв4862100 0.0 1014768
12:00+18ююв464794 0.0 10141427
15:00+20ююв474547 0.0 10121880
18:00+18юв486487 0.1 1011675
21:00+13в3996100 1.3 1010284
15 мая, сб
сб1500:00+13вюв3109743 0.5 1008270
03:00+12юв399969 0.5 1008277
06:00+13ююв3696100 0.1 1007299
09:00+16ю2481100 0.1 1007489
12:00+21ююз245848 0.1 10061525
15:00+21юз2263100 1.6 10051036
18:00+18юз118298 2.3 100433
21:00+14зюз1191100 3.6 100411